Showing default

FLOCK 4H 17, 66720

Orbit data source: Space-Track

FLOCK 4H 17, 66720 is a payload satellite owned by Planet (US) in SSO that was launched on Fri, 28 Nov 2025 UTC via an FALCON 9 launch vehicle from the Air Force Western Test Range (AFWTR). Payload-class satellites include a variety of spacecraft equipped with specific instruments for various scientific and technological missions. These include communications satellites like Starlink; space stations such as the ISS; scientific satellites like the Hubble; Earth observation satellites from companies like Planet Labs, Umbra, and HawkEye 360; GPS; miniature CubeSats for education and research; and military/defense satellites.

Loading next visibility...
Identifier
66720, 2025-276BG
Orbit
SSO
Country
Flag of USUS
Related business
Manufacturer
Planet
Mission
Non-operational Commercial Imaging
Bus & Motor
CUBESAT 3U, Unknown motor
Mass
5.7 kg wet, 5.7 kg dry
Launch date (UTC)
2025-11-28 (9 months ago)
Launch vehicle
FALCON 9
Launch site
Air Force Western Test Range (AFWTR)
Object type
Payload
Rocket body
Debris
Shape & HBR
Box + 2 Pan, 1.0 m
Radar Cross Section
0.072 m², Medium (>0.1 m² and < 1m²)

Expand to show TLE details & history
Last TLE update: 5 hours ago

TLE from 5 hours ago
0 FLOCK 4H 17
1 66720U 25276BG  26238.48832615  .00012428  00000-0  50742-3 0  9999
2 66720  97.4167 311.7517 0004474  84.5214 275.6534 15.24533183 41153
Epoch: 2026-08-26T11:43Z
TLE epoch observation values (Epoch: 2026-08-26T11:43:11.379Z)
Latitude
Longitude
161.21368°
Altitude
494.982 km
Speed
7.617 km/s
True Right ascension
20h 47m 00s
True Declination
0° 00' 00"
Sunlit
Object was in full shadow at epoch
Visualization orbit readout
Latitude
Unknown
Longitude
Unknown
Altitude
Unknown
Speed
Unknown
Apparent Right ascension
Unknown
Apparent Declination
Unknown
Sunlit
N/A
Visualization observer readout
Local Sidereal Time
08:21:08
Azimuth
Unknown
Elevation
Unknown
Doppler factor
Unknown
Orbital elements
Apogee altitude
492.22 km
Perigee altitude
486.075 km
Semi-major axis
6,867.285 km
Eccentricity
0.00045
Inclination
97.4167°
RAAN
311.7517°
Arg. of periapsis
84.5214°
True anomaly
275.60238°
Mean anomaly
275.6534°
Eccentric anomaly
275.62789°
Mean motion
3.81387 °/min
Orbital period
94.39 mins
BSTAR
0.00050742
Loading maneuver chart data...
Computing Atmospheric mass density...
Loading historical data...
Loading historical data...
Loading historical data...
Loading historical data...
Loading historical data...
Loading historical data...
Loading historical data...

Documentation

Showing up to 5 results
|